Location: Pic du Midi - T1M
(42.9366°N, 0.1426°E)
Time: 00:19:43
(UTC+01:00)

X-37B - Pass Details

Date: 20 June 2021
Orbit: 383 x 392 km, 45.0° (Epoch: 01 July)

Event Time Altitude Azimuth Distance (km) Brightness Sun altitude
Rises 04:34:31 0° 285° (WNW) 2,253 4.1 -7.5°
Reaches altitude 10° 04:36:38 10° 279° (W) 1,399 3.0 -7.2°
Maximum altitude 04:39:39 43° 206° (SSW) 548 0.9 -6.8°
Drops below altitude 10° 04:42:39 10° 133° (SE) 1,398 3.5 -6.3°
Sets 04:44:46 0° 126° (SE) 2,250 4.6 -6.0°
